Regional Weather Roundup
Issued by NWS Kansas City/Pleasant Hill, MO

Home | Current Version | Previous Version | Text Only | Print | Product List | Glossary On
Versions: 1 2 3 4 5 6 7 8 9 10 11 12 13 14 15 16 17 18 19 20 21 22 23 24 25 26 27 28 29 30 31 32 33 34 35 36 37 38 39 40 41 42 43 44 45 46 47 48 49 50
657
ASUS43 KEAX 231410
RWREAX

WEATHER ROUNDUP FOR EASTERN KANSAS AND NORTHWEST MISSOURI
NATIONAL WEATHER SERVICE KANSAS CITY/PLEASANT HILL MO
900 AM CDT SAT JUL 23 2016

KSZ040-057-103>105-MOZ028-029-037-043-231500-
...KANSAS CITY METROPOLITAN AREA...

CITY           SKY/WX    TMP DP  RH WIND       PRES   REMARKS
K.C. INTL      CLOUDY    83  74  74 SW9       29.97R
K.C. DOWNTOWN  CLOUDY    87  72  60 SW9       29.95S HX  93
LEES SUMMIT    MOSUNNY   86  73  65 SW9       29.99R HX  93
OLATHE - IXD   PTSUNNY   83  72  69 S9        29.99R
OLATHE - OJC   MOSUNNY   82  73  74 S7        29.99R
LAWRENCE       MOSUNNY   83  74  74 S7        29.96F

$$

MOZ001>008-011>017-020>025-030>033-038>040-044>046-053-054-231500-
...NORTHERN AND CENTRAL MISSOURI...

CITY           SKY/WX    TMP DP  RH WIND       PRES   REMARKS
ST. JOSEPH     CLOUDY    84  74  71 SW12G22   29.92F HX  91
MOSBY          MOSUNNY   84  73  70 S3        29.96F HX  91
WHITEMAN AFB   MOSUNNY   85  76  73 SW9       29.98R HX  95
CLINTON        SUNNY     84  75  74 S8        29.99S HX  92
SEDALIA        SUNNY     86  75  69 SW9       30.01R HX  95
WARSAW         NOT AVBL
CHILLICOTHE      N/A     85  77  77 S6        29.97R HX  95
KIRKSVILLE     PTSUNNY   85  76  74 SW7       29.98R HX  94

$$

MOZ041-047>049-056>058-063>065-088>090-097-231500-
...EASTERN AND SOUTHERN MISSOURI...

CITY           SKY/WX    TMP DP  RH WIND       PRES   REMARKS
ST. LOUIS INTL MOSUNNY   85  72  65 S7        30.01S HX  91
SPIRIT OF STL  SUNNY     83  75  77 S5        29.99S HX  90
COLUMBIA       SUNNY     84  77  79 S6        30.00R HX  94
JEFFERSON CITY SUNNY     84  75  74 CALM      29.98S HX  92
ROLLA          SUNNY     83  73  72 S8        30.01S
OSAGE BEACH    SUNNY     83  77  82 S5        30.01S HX  92
SPRINGFIELD    SUNNY     85  74  69 SW8       30.03R HX  92
BRANSON        SUNNY     86  73  66 CALM      30.05R HX  93
JOPLIN         SUNNY     87  75  67 S7        30.01R HX  96
WEST PLAINS    SUNNY     83  76  79 CALM      30.06R HX  91

$$

IAZ060-094-KSZ022-034>040-054-083-096-NEZ052-066-093-231500-
...KANSAS...SOUTHEAST NEBRASKA AND IOWA...

CITY           SKY/WX    TMP DP  RH WIND       PRES   REMARKS
TOPEKA         CLOUDY    85  72  65 S7        29.95F HX  91
MANHATTAN      CLOUDY    82  71  69 S5        29.93S
EMPORIA        MOSUNNY   81  71  71 NW3       29.99R
CHANUTE        SUNNY     85  73  67 S7        29.99R HX  91
WICHITA        CLOUDY    82  69  64 S6        29.97R
OMAHA          CLOUDY    84  70  62 S10       29.84S
LINCOLN        CLOUDY    80  71  74 S7        29.86S
FALLS CITY     CLOUDY    82  73  74 S12       29.89F
LAMONI         MOSUNNY   81  76  84 S9        29.94R
DES MOINES     CLOUDY    83  76  79 S8        29.90R HX  91

$$





USA.gov is the U.S. government's official web portal to all federal, state and local government web resources and services.